| time (UTC) | temp F | wind direction | speed knots | gust knots | rain 1hr in | rain 24hr in | rain mn in | humidity % | barometer mb |
| 20260506185003 | 58 | 97 | 0.9 | 1.7 | 0.00 | 0.45 | 0.45 | 78 | 1017.6 |
| 20260506184713 | 58 | 82 | 0.9 | 1.7 | 0.00 | 0.45 | 0.45 | 78 | 1017.7 |
| 20260506184004 | 58 | 75 | 0.9 | 1.7 | 0.00 | 0.45 | 0.45 | 78 | 1017.3 |
| 20260506183503 | 58 | 97 | 0.9 | 1.7 | 0.00 | 0.45 | 0.45 | 76 | 1017.3 |
| 20260506183003 | 58 | 128 | 0.9 | 1.7 | 0.00 | 0.45 | 0.45 | 77 | 1017.2 |
| 20260506182503 | 59 | 133 | 0.9 | 1.7 | 0.00 | 0.45 | 0.45 | 78 | 1017.0 |
| 20260506182214 | 59 | 143 | 0.0 | 1.7 | 0.00 | 0.45 | 0.45 | 77 | 1016.8 |
| 20260506181503 | 60 | 138 | 0.0 | 0.9 | 0.00 | 0.45 | 0.45 | 75 | 1016.6 |
| 20260506181003 | 60 | 121 | 0.0 | 0.9 | 0.00 | 0.45 | 0.45 | 74 | 1016.5 |
| 20260506180503 | 60 | 135 | 0.0 | 0.9 | 0.00 | 0.45 | 0.45 | 76 | 1016.2 |
| 20260506180005 | 61 | 163 | 0.0 | 0.9 | 0.00 | 0.45 | 0.45 | 77 | 1016.1 |
| 20260506175503 | 61 | 131 | 0.0 | 1.7 | 0.00 | 0.45 | 0.45 | 77 | 1015.9 |
| 20260506175003 | 61 | 131 | 0.0 | 1.7 | 0.00 | 0.45 | 0.45 | 76 | 1015.7 |
| 20260506174503 | 62 | 0 | 0.0 | 0.0 | 0.00 | 0.45 | 0.45 | 76 | 1015.7 |
| 20260506174003 | 62 | 293 | 0.0 | 1.7 | 0.00 | 0.45 | 0.45 | 73 | 1015.5 |
| 20260506173503 | 62 | 295 | 0.0 | 1.7 | 0.00 | 0.45 | 0.45 | 73 | 1015.3 |
| 20260506173003 | 63 | 298 | 0.0 | 1.7 | 0.00 | 0.45 | 0.45 | 72 | 1015.5 |
| 20260506172503 | 63 | 291 | 0.9 | 1.7 | 0.00 | 0.45 | 0.45 | 71 | 1015.2 |
| 20260506172003 | 63 | 296 | 0.9 | 1.7 | 0.00 | 0.45 | 0.45 | 70 | 1015.5 |
| 20260506171712 | 63 | 306 | 0.0 | 0.9 | 0.00 | 0.45 | 0.45 | 70 | 1015.2 |
| 20260506171003 | 63 | 291 | 0.0 | 1.7 | 0.00 | 0.45 | 0.45 | 70 | 1015.2 |
| 20260506170503 | 63 | 290 | 0.9 | 2.6 | 0.00 | 0.45 | 0.45 | 69 | 1015.2 |
| 20260506170003 | 63 | 288 | 1.7 | 2.6 | 0.00 | 0.45 | 0.45 | 70 | 1015.5 |
| 20260506165503 | 63 | 288 | 1.7 | 2.6 | 0.00 | 0.45 | 0.45 | 70 | 1015.4 |
| 20260506165003 | 64 | 288 | 0.9 | 2.6 | 0.00 | 0.45 | 0.45 | 70 | 1015.0 |
| 20260506164503 | 67 | 272 | 0.9 | 2.6 | 0.00 | 0.45 | 0.45 | 65 | 1014.4 |
| 20260506164213 | 67 | 244 | 0.9 | 2.6 | 0.00 | 0.45 | 0.45 | 63 | 1014.4 |
| 20260506163712 | 67 | 289 | 0.9 | 3.5 | 0.00 | 0.45 | 0.45 | 61 | 1014.2 |
| 20260506163003 | 67 | 287 | 1.7 | 5.2 | 0.00 | 0.45 | 0.45 | 62 | 1014.5 |
| 20260506162503 | 66 | 287 | 0.9 | 5.2 | 0.00 | 0.45 | 0.45 | 63 | 1014.6 |
| 20260506162003 | 67 | 285 | 0.9 | 2.6 | 0.00 | 0.45 | 0.45 | 61 | 1014.3 |
| 20260506161503 | 67 | 293 | 0.9 | 1.7 | 0.00 | 0.45 | 0.45 | 63 | 1014.4 |
| 20260506161003 | 66 | 282 | 0.9 | 2.6 | 0.00 | 0.45 | 0.45 | 63 | 1014.4 |
| 20260506160503 | 66 | 280 | 0.9 | 2.6 | 0.00 | 0.45 | 0.45 | 63 | 1014.5 |
| 20260506160003 | 64 | 261 | 0.9 | 2.6 | 0.00 | 0.45 | 0.45 | 65 | 1014.8 |
| 20260506155503 | 64 | 181 | 0.9 | 2.6 | 0.00 | 0.45 | 0.45 | 65 | 1015.0 |
| 20260506155213 | 64 | 177 | 0.9 | 2.6 | 0.00 | 0.45 | 0.45 | 66 | 1014.8 |
| 20260506154504 | 65 | 231 | 0.9 | 2.6 | 0.00 | 0.45 | 0.45 | 65 | 1014.8 |
| 20260506154003 | 65 | 116 | 0.0 | 1.7 | 0.00 | 0.45 | 0.45 | 65 | 1014.7 |
| 20260506153503 | 65 | 127 | 0.0 | 1.7 | 0.00 | 0.45 | 0.45 | 67 | 1014.9 |
| 20260506153003 | 65 | 177 | 0.9 | 3.5 | 0.00 | 0.45 | 0.45 | 67 | 1014.9 |
| 20260506152503 | 65 | 251 | 0.9 | 3.5 | 0.00 | 0.45 | 0.45 | 67 | 1014.9 |
| 20260506152213 | 65 | 306 | 0.9 | 2.6 | 0.00 | 0.45 | 0.45 | 65 | 1015.0 |
| 20260506151714 | 65 | 326 | 0.9 | 2.6 | 0.00 | 0.45 | 0.45 | 64 | 1015.0 |
| 20260506151003 | 65 | 236 | 0.9 | 2.6 | 0.00 | 0.45 | 0.45 | 63 | 1014.8 |
| 20260506150503 | 64 | 92 | 0.9 | 2.6 | 0.00 | 0.45 | 0.45 | 63 | 1014.9 |
| 20260506150004 | 65 | 73 | 0.9 | 5.2 | 0.00 | 0.45 | 0.45 | 63 | 1014.8 |
| 20260506145503 | 64 | 74 | 1.7 | 6.1 | 0.00 | 0.45 | 0.45 | 64 | 1014.9 |
| 20260506145003 | 65 | 77 | 1.7 | 7.8 | 0.00 | 0.45 | 0.45 | 65 | 1014.9 |
| 20260506144503 | 66 | 79 | 0.9 | 7.8 | 0.00 | 0.45 | 0.45 | 64 | 1014.8 |
| 20260506144003 | 65 | 103 | 0.9 | 3.5 | 0.00 | 0.45 | 0.45 | 63 | 1014.9 |
| 20260506143503 | 66 | 146 | 0.9 | 3.5 | 0.00 | 0.45 | 0.45 | 64 | 1014.8 |
| 20260506143003 | 67 | 273 | 1.7 | 7.0 | 0.00 | 0.45 | 0.45 | 64 | 1014.5 |
| 20260506142503 | 67 | 221 | 2.6 | 7.0 | 0.00 | 0.45 | 0.45 | 63 | 1014.4 |
| 20260506142003 | 67 | 178 | 1.7 | 5.2 | 0.00 | 0.45 | 0.45 | 63 | 1014.7 |
| 20260506141713 | 68 | 250 | 1.7 | 7.8 | 0.00 | 0.45 | 0.45 | 63 | 1014.3 |
| 20260506141003 | 67 | 255 | 2.6 | 7.8 | 0.00 | 0.45 | 0.45 | 63 | 1014.6 |
| 20260506140503 | 67 | 156 | 1.7 | 3.5 | 0.00 | 0.45 | 0.45 | 59 | 1014.7 |
| 20260506140003 | 69 | 209 | 1.7 | 5.2 | 0.00 | 0.45 | 0.45 | 61 | 1014.5 |
| 20260506135503 | 68 | 235 | 1.7 | 5.2 | 0.00 | 0.45 | 0.45 | 63 | 1014.4 |
| 20260506135003 | 67 | 264 | 1.7 | 5.2 | 0.00 | 0.45 | 0.45 | 63 | 1014.8 |
| 20260506134503 | 67 | 284 | 1.7 | 5.2 | 0.00 | 0.45 | 0.45 | 61 | 1014.9 |
| 20260506134003 | 69 | 215 | 0.9 | 3.5 | 0.00 | 0.45 | 0.45 | 62 | 1014.8 |
| 20260506133503 | 67 | 129 | 1.7 | 7.0 | 0.00 | 0.45 | 0.45 | 64 | 1015.0 |
| 20260506133214 | 65 | 157 | 2.6 | 7.0 | 0.00 | 0.45 | 0.45 | 65 | 1015.0 |
| 20260506132503 | 66 | 187 | 2.6 | 6.1 | 0.00 | 0.45 | 0.45 | 66 | 1014.9 |
| 20260506132003 | 65 | 148 | 2.6 | 6.1 | 0.00 | 0.45 | 0.45 | 65 | 1015.1 |
| 20260506131503 | 65 | 165 | 2.6 | 6.1 | 0.00 | 0.45 | 0.45 | 66 | 1015.1 |
| 20260506131003 | 66 | 185 | 1.7 | 6.1 | 0.00 | 0.45 | 0.45 | 66 | 1015.2 |
| 20260506130503 | 65 | 192 | 1.7 | 6.1 | 0.00 | 0.45 | 0.45 | 66 | 1015.4 |
| 20260506130003 | 64 | 221 | 2.6 | 7.0 | 0.00 | 0.45 | 0.45 | 67 | 1015.5 |
| 20260506125503 | 63 | 227 | 2.6 | 7.0 | 0.00 | 0.45 | 0.45 | 69 | 1015.3 |
| 20260506125003 | 64 | 167 | 2.6 | 6.1 | 0.00 | 0.45 | 0.45 | 70 | 1015.4 |
| 20260506124503 | 64 | 152 | 1.7 | 5.2 | 0.00 | 0.45 | 0.45 | 70 | 1015.3 |
| 20260506124214 | 64 | 171 | 0.9 | 3.5 | 0.00 | 0.45 | 0.45 | 68 | 1015.3 |
| 20260506123503 | 64 | 239 | 0.9 | 3.5 | 0.00 | 0.45 | 0.45 | 70 | 1015.3 |
| 20260506123214 | 64 | 246 | 0.9 | 3.5 | 0.00 | 0.45 | 0.45 | 70 | 1015.5 |
| 20260506122503 | 64 | 275 | 0.9 | 3.5 | 0.00 | 0.45 | 0.45 | 68 | 1015.3 |
| 20260506122003 | 64 | 57 | 1.7 | 5.2 | 0.00 | 0.45 | 0.45 | 68 | 1015.1 |
| 20260506121503 | 65 | 64 | 1.7 | 5.2 | 0.00 | 0.45 | 0.45 | 68 | 1014.9 |
| 20260506121214 | 65 | 69 | 1.7 | 6.1 | 0.00 | 0.45 | 0.45 | 68 | 1015.1 |
| 20260506120713 | 64 | 76 | 2.6 | 6.1 | 0.00 | 0.45 | 0.45 | 69 | 1015.3 |
| 20260506120003 | 65 | 75 | 1.7 | 6.1 | 0.00 | 0.45 | 0.45 | 68 | 1014.9 |
| 20260506115503 | 66 | 97 | 0.9 | 5.2 | 0.00 | 0.45 | 0.45 | 67 | 1014.9 |
| 20260506115003 | 65 | 21 | 0.9 | 3.5 | 0.00 | 0.45 | 0.45 | 66 | 1015.0 |
| 20260506114503 | 65 | 55 | 0.9 | 2.6 | 0.00 | 0.45 | 0.45 | 66 | 1015.1 |
| 20260506114213 | 64 | 24 | 0.9 | 2.6 | 0.00 | 0.45 | 0.45 | 67 | 1015.1 |
| 20260506113503 | 65 | 351 | 0.9 | 5.2 | 0.00 | 0.45 | 0.45 | 65 | 1015.2 |
| 20260506113003 | 64 | 97 | 0.9 | 5.2 | 0.00 | 0.45 | 0.45 | 67 | 1015.3 |
| 20260506112503 | 63 | 101 | 1.7 | 5.2 | 0.00 | 0.45 | 0.45 | 70 | 1015.6 |
| 20260506112213 | 64 | 75 | 0.9 | 5.2 | 0.00 | 0.45 | 0.45 | 67 | 1015.4 |
| 20260506111712 | 64 | 68 | 1.7 | 5.2 | 0.00 | 0.45 | 0.45 | 68 | 1015.2 |
| 20260506111003 | 64 | 76 | 0.9 | 5.2 | 0.00 | 0.45 | 0.45 | 70 | 1015.6 |
| 20260506110503 | 64 | 95 | 0.9 | 5.2 | 0.00 | 0.45 | 0.45 | 71 | 1015.5 |
| 20260506110003 | 62 | 117 | 0.9 | 3.5 | 0.00 | 0.45 | 0.45 | 73 | 1015.8 |
| 20260506105503 | 62 | 93 | 1.7 | 7.0 | 0.00 | 0.45 | 0.45 | 73 | 1015.9 |
| 20260506105003 | 62 | 68 | 0.9 | 7.0 | 0.00 | 0.45 | 0.45 | 72 | 1015.9 |
| 20260506104503 | 63 | 102 | 0.9 | 3.5 | 0.00 | 0.45 | 0.45 | 71 | 1015.9 |
| 20260506104003 | 62 | 131 | 1.7 | 7.0 | 0.00 | 0.45 | 0.45 | 70 | 1015.9 |
| 20260506103503 | 61 | 153 | 1.7 | 7.0 | 0.00 | 0.45 | 0.45 | 71 | 1016.4 |
| 20260506103003 | 61 | 156 | 1.7 | 3.5 | 0.00 | 0.45 | 0.45 | 70 | 1016.4 |
| 20260506102503 | 61 | 183 | 1.7 | 5.2 | 0.00 | 0.45 | 0.45 | 69 | 1016.1 |
| 20260506102003 | 61 | 176 | 1.7 | 5.2 | 0.00 | 0.45 | 0.45 | 69 | 1016.3 |
| 20260506101503 | 60 | 140 | 0.9 | 5.2 | 0.00 | 0.45 | 0.45 | 72 | 1016.3 |
| 20260506101003 | 61 | 130 | 0.9 | 1.7 | 0.00 | 0.45 | 0.45 | 71 | 1016.2 |
| 20260506100714 | 62 | 125 | 0.9 | 1.7 | 0.00 | 0.45 | 0.45 | 69 | 1016.1 |
| 20260506100004 | 60 | 141 | 0.9 | 3.5 | 0.00 | 0.45 | 0.45 | 70 | 1016.3 |
| 20260506095503 | 61 | 143 | 1.7 | 3.5 | 0.00 | 0.45 | 0.45 | 71 | 1016.3 |
| 20260506095003 | 60 | 148 | 1.7 | 3.5 | 0.00 | 0.45 | 0.45 | 68 | 1016.4 |
| 20260506094503 | 60 | 134 | 1.7 | 5.2 | 0.00 | 0.45 | 0.45 | 70 | 1016.8 |
| 20260506094003 | 61 | 124 | 1.7 | 5.2 | 0.00 | 0.45 | 0.45 | 68 | 1016.4 |
| 20260506093503 | 62 | 126 | 0.9 | 3.5 | 0.00 | 0.45 | 0.45 | 70 | 1016.5 |
| 20260506093004 | 60 | 137 | 0.9 | 3.5 | 0.00 | 0.45 | 0.45 | 75 | 1016.6 |
| 20260506092503 | 60 | 144 | 0.9 | 3.5 | 0.00 | 0.45 | 0.45 | 75 | 1016.7 |
| 20260506092008 | 59 | 154 | 0.9 | 2.6 | 0.00 | 0.45 | 0.45 | 75 | 1016.6 |
| 20260506091713 | 59 | 110 | 0.9 | 2.6 | 0.00 | 0.45 | 0.45 | 72 | 1016.8 |
| 20260506091003 | 59 | 70 | 0.9 | 2.6 | 0.00 | 0.45 | 0.45 | 73 | 1016.9 |
| 20260506090503 | 59 | 74 | 0.9 | 3.5 | 0.00 | 0.45 | 0.45 | 72 | 1016.8 |
| 20260506090003 | 60 | 68 | 0.9 | 3.5 | 0.00 | 0.45 | 0.45 | 75 | 1016.7 |
| 20260506085503 | 59 | 68 | 0.9 | 2.6 | 0.00 | 0.45 | 0.45 | 78 | 1017.1 |
| 20260506085003 | 58 | 77 | 1.7 | 3.5 | 0.00 | 0.45 | 0.45 | 76 | 1017.0 |
| 20260506084503 | 59 | 69 | 1.7 | 3.5 | 0.00 | 0.45 | 0.45 | 77 | 1016.8 |
| 20260506084212 | 60 | 64 | 0.9 | 3.5 | 0.00 | 0.45 | 0.45 | 74 | 1016.7 |
| 20260506083503 | 63 | 342 | 0.0 | 0.9 | 0.00 | 0.45 | 0.45 | 65 | 1016.3 |
| 20260506083212 | 62 | 24 | 0.0 | 1.7 | 0.00 | 0.45 | 0.45 | 66 | 1016.4 |
| 20260506082713 | 62 | 43 | 0.9 | 1.7 | 0.00 | 0.45 | 0.45 | 69 | 1016.4 |
| 20260506082003 | 61 | 47 | 0.9 | 3.5 | 0.00 | 0.45 | 0.45 | 67 | 1016.8 |
| 20260506081503 | 60 | 355 | 0.9 | 1.7 | 0.00 | 0.45 | 0.45 | 72 | 1016.7 |
| 20260506081003 | 59 | 322 | 0.9 | 1.7 | 0.00 | 0.45 | 0.45 | 71 | 1016.7 |
| 20260506080503 | 59 | 358 | 0.9 | 2.6 | 0.00 | 0.45 | 0.45 | 72 | 1017.0 |
| 20260506073503 | 58 | 18 | 0.0 | 1.7 | 0.00 | 0.45 | 0.45 | 81 | 1017.5 |
| 20260506073003 | 57 | 314 | 0.9 | 2.6 | 0.00 | 0.45 | 0.45 | 83 | 1017.4 |
| 20260506072503 | 56 | 305 | 0.0 | 2.6 | 0.00 | 0.45 | 0.45 | 84 | 1017.7 |
| 20260506072214 | 56 | 308 | 0.0 | 1.7 | 0.00 | 0.45 | 0.45 | 83 | 1017.6 |
| 20260506071503 | 55 | 47 | 0.0 | 0.9 | 0.00 | 0.45 | 0.45 | 89 | 1018.0 |
| 20260506071003 | 54 | 54 | 0.0 | 0.9 | 0.00 | 0.45 | 0.45 | 91 | 1018.0 |
| 20260506070503 | 53 | 61 | 0.0 | 0.9 | 0.00 | 0.45 | 0.45 | 93 | 1018.1 |
| 20260506070214 | 52 | 348 | 0.0 | 1.7 | 0.01 | 0.45 | 0.45 | 93 | 1018.4 |
| 20260506062503 | 51 | 0 | 0.0 | 0.0 | 0.03 | 0.45 | 0.45 | 97 | 1018.9 |
| 20260506062003 | 51 | 0 | 0.0 | 0.0 | 0.03 | 0.45 | 0.45 | 98 | 1019.0 |
| 20260506061503 | 51 | 0 | 0.0 | 0.0 | 0.03 | 0.45 | 0.45 | 98 | 1018.9 |
| 20260506061003 | 51 | 78 | 0.0 | 0.9 | 0.04 | 0.45 | 0.45 | 98 | 1019.0 |
| 20260506060503 | 51 | 78 | 0.0 | 0.9 | 0.04 | 0.45 | 0.45 | 98 | 1019.1 |
| 20260506051003 | 51 | 70 | 0.0 | 0.9 | 0.28 | 0.41 | 0.41 | 98 | 1018.9 |
| 20260506050503 | 51 | 73 | 0.9 | 2.6 | 0.29 | 0.41 | 0.41 | 98 | 1019.0 |
| 20260506045003 | 51 | 106 | 0.0 | 1.7 | 0.31 | 0.40 | 0.40 | 98 | 1019.1 |
| 20260506044503 | 51 | 112 | 0.0 | 1.7 | 0.31 | 0.39 | 0.39 | 98 | 1019.1 |
| 20260506044003 | 51 | 88 | 0.0 | 0.9 | 0.29 | 0.36 | 0.36 | 98 | 1019.1 |
| 20260506043503 | 51 | 77 | 0.0 | 0.9 | 0.27 | 0.32 | 0.33 | 98 | 1019.2 |
| 20260506043003 | 51 | 107 | 0.0 | 1.7 | 0.23 | 0.26 | 0.26 | 98 | 1019.1 |
| 20260506042503 | 51 | 108 | 0.0 | 1.7 | 0.18 | 0.21 | 0.21 | 98 | 1019.1 |
| 20260506042003 | 51 | 85 | 0.0 | 1.7 | 0.16 | 0.18 | 0.18 | 98 | 1019.4 |
| 20260506041714 | 51 | 87 | 0.9 | 1.7 | 0.14 | 0.16 | 0.16 | 98 | 1019.4 |
| 20260506041003 | 51 | 75 | 0.9 | 1.7 | 0.11 | 0.14 | 0.13 | 98 | 1019.1 |
| 20260506040503 | 51 | 70 | 0.9 | 2.6 | 0.10 | 0.14 | 0.12 | 98 | 1019.4 |
| 20260506040003 | 51 | 71 | 0.0 | 2.6 | 0.09 | 0.14 | 0.11 | 98 | 1019.2 |
| 20260506035503 | 51 | 69 | 0.0 | 2.6 | 0.08 | 0.14 | 0.10 | 98 | 1019.1 |
| 20260506035003 | 51 | 91 | 0.9 | 2.6 | 0.07 | 0.14 | 0.09 | 98 | 1019.1 |
| 20260506034713 | 51 | 129 | 0.0 | 2.6 | 0.07 | 0.15 | 0.09 | 98 | 1019.1 |
| 20260506034003 | 51 | 125 | 0.9 | 2.6 | 0.05 | 0.15 | 0.07 | 97 | 1019.4 |
| 20260506033503 | 51 | 125 | 0.0 | 2.6 | 0.03 | 0.13 | 0.05 | 97 | 1019.4 |
| 20260506033004 | 51 | 127 | 0.0 | 1.7 | 0.01 | 0.12 | 0.03 | 97 | 1019.4 |
| 20260506032503 | 51 | 132 | 0.0 | 0.9 | 0.01 | 0.12 | 0.03 | 97 | 1019.4 |
| 20260506032003 | 51 | 132 | 0.0 | 0.9 | 0.00 | 0.11 | 0.02 | 97 | 1019.5 |
| 20260506031503 | 51 | 132 | 0.0 | 0.9 | 0.00 | 0.12 | 0.02 | 97 | 1019.6 |
| 20260506031003 | 51 | 113 | 0.0 | 0.9 | 0.00 | 0.13 | 0.02 | 97 | 1019.6 |
| 20260506030713 | 51 | 79 | 0.0 | 1.7 | 0.00 | 0.14 | 0.02 | 97 | 1019.8 |
| 20260506030003 | 51 | 83 | 0.0 | 1.7 | 0.00 | 0.15 | 0.02 | 97 | 1019.8 |
| 20260506025503 | 51 | 140 | 0.0 | 0.9 | 0.00 | 0.15 | 0.02 | 98 | 1020.0 |
| 20260506025004 | 51 | 0 | 0.0 | 0.0 | 0.00 | 0.16 | 0.02 | 98 | 1020.1 |
| 20260506024713 | 51 | 0 | 0.0 | 0.0 | 0.00 | 0.17 | 0.02 | 98 | 1020.0 |
| 20260506024003 | 51 | 0 | 0.0 | 0.0 | 0.00 | 0.19 | 0.02 | 98 | 1020.2 |
| 20260506023503 | 51 | 0 | 0.0 | 0.0 | 0.00 | 0.20 | 0.02 | 98 | 1020.1 |
| 20260506023003 | 51 | 0 | 0.0 | 0.0 | 0.00 | 0.21 | 0.02 | 97 | 1020.3 |
| 20260506022503 | 51 | 127 | 0.0 | 0.9 | 0.00 | 0.22 | 0.02 | 97 | 1020.1 |
| 20260506022003 | 51 | 126 | 0.0 | 1.7 | 0.00 | 0.23 | 0.02 | 97 | 1020.3 |
| 20260506021713 | 51 | 126 | 0.0 | 1.7 | 0.00 | 0.24 | 0.02 | 97 | 1020.2 |
| 20260506021003 | 51 | 126 | 0.0 | 0.9 | 0.00 | 0.26 | 0.02 | 97 | 1020.3 |
| 20260506020503 | 51 | 0 | 0.0 | 0.0 | 0.00 | 0.26 | 0.02 | 97 | 1020.1 |
| 20260506020004 | 51 | 317 | 0.0 | 0.9 | 0.00 | 0.27 | 0.02 | 97 | 1020.3 |
| 20260506015713 | 51 | 317 | 0.0 | 0.9 | 0.00 | 0.27 | 0.02 | 97 | 1020.0 |
| 20260506015003 | 51 | 0 | 0.0 | 0.0 | 0.00 | 0.28 | 0.02 | 97 | 1020.3 |
| 20260506014503 | 51 | 0 | 0.0 | 0.0 | 0.00 | 0.28 | 0.02 | 97 | 1020.4 |
| 20260506014003 | 51 | 0 | 0.0 | 0.0 | 0.00 | 0.28 | 0.02 | 97 | 1020.3 |
| 20260506013503 | 51 | 311 | 0.0 | 0.9 | 0.00 | 0.28 | 0.02 | 97 | 1020.4 |
| 20260506013003 | 51 | 301 | 0.9 | 1.7 | 0.00 | 0.28 | 0.02 | 97 | 1020.4 |
| 20260506012503 | 51 | 297 | 0.9 | 1.7 | 0.00 | 0.28 | 0.02 | 97 | 1020.4 |
| 20260506012003 | 51 | 289 | 0.0 | 0.9 | 0.01 | 0.28 | 0.02 | 97 | 1020.6 |
| 20260506011503 | 51 | 0 | 0.0 | 0.0 | 0.01 | 0.28 | 0.02 | 97 | 1020.8 |
| 20260506011214 | 51 | 0 | 0.0 | 0.0 | 0.01 | 0.28 | 0.02 | 97 | 1020.4 |
| 20260506010503 | 51 | 72 | 0.0 | 0.9 | 0.02 | 0.28 | 0.02 | 97 | 1020.8 |
| 20260506010003 | 51 | 73 | 0.0 | 1.7 | 0.02 | 0.28 | 0.02 | 97 | 1020.7 |
| 20260506005503 | 51 | 72 | 0.9 | 1.7 | 0.02 | 0.28 | 0.02 | 97 | 1020.9 |
| 20260506005003 | 51 | 73 | 0.9 | 1.7 | 0.02 | 0.28 | 0.02 | 97 | 1021.1 |
| 20260506004503 | 51 | 74 | 0.9 | 1.7 | 0.02 | 0.28 | 0.02 | 97 | 1021.2 |
| 20260506004003 | 51 | 75 | 0.0 | 1.7 | 0.02 | 0.28 | 0.02 | 97 | 1021.4 |
| 20260506003503 | 51 | 0 | 0.0 | 0.0 | 0.02 | 0.28 | 0.02 | 97 | 1021.3 |
| 20260506003003 | 51 | 157 | 0.0 | 0.9 | 0.02 | 0.28 | 0.02 | 97 | 1021.8 |
| 20260506002503 | 51 | 157 | 0.0 | 0.9 | 0.02 | 0.28 | 0.02 | 96 | 1021.9 |
| 20260506002003 | 51 | 0 | 0.0 | 0.0 | 0.01 | 0.27 | 0.01 | 96 | 1021.9 |
| 20260506001712 | 51 | 0 | 0.0 | 0.0 | 0.01 | 0.27 | 0.01 | 96 | 1021.7 |
| 20260506001003 | 51 | 113 | 0.0 | 0.9 | 0.01 | 0.28 | 0.01 | 96 | 1022.0 |
| 20260506000712 | 51 | 113 | 0.0 | 0.9 | 0.00 | 0.27 | 0.00 | 96 | 1022.2 |
| 20260506000213 | 52 | 315 | 0.0 | 0.9 | 0.00 | 0.27 | 0.00 | 96 | 1021.9 |
| 20260505235503 | 52 | 315 | 0.0 | 0.9 | 0.00 | 0.27 | 0.00 | 95 | 1022.1 |
| 20260505235213 | 52 | 0 | 0.0 | 0.0 | 0.00 | 0.27 | 0.00 | 95 | 1022.2 |
| 20260505234714 | 52 | 60 | 0.0 | 0.9 | 0.00 | 0.27 | 0.00 | 95 | 1022.1 |
| 20260505234003 | 52 | 60 | 0.0 | 0.9 | 0.00 | 0.27 | 0.00 | 95 | 1022.0 |
| 20260505233503 | 52 | 0 | 0.0 | 0.0 | 0.00 | 0.27 | 0.00 | 96 | 1022.2 |
| 20260505233003 | 52 | 311 | 0.0 | 0.9 | 0.00 | 0.27 | 0.00 | 96 | 1022.0 |
| 20260505232503 | 51 | 308 | 0.0 | 0.9 | 0.00 | 0.27 | 0.00 | 96 | 1022.1 |
| 20260505232003 | 51 | 304 | 0.0 | 0.9 | 0.00 | 0.27 | 0.00 | 96 | 1022.2 |
| 20260505231503 | 52 | 303 | 0.0 | 1.7 | 0.00 | 0.27 | 0.00 | 96 | 1022.3 |
| 20260505231003 | 52 | 308 | 0.0 | 1.7 | 0.00 | 0.27 | 0.00 | 95 | 1022.3 |
| 20260505230714 | 52 | 328 | 0.0 | 0.9 | 0.00 | 0.27 | 0.00 | 95 | 1022.5 |
| 20260505230003 | 52 | 0 | 0.0 | 0.0 | 0.00 | 0.27 | 0.00 | 95 | 1022.4 |
| 20260505225503 | 51 | 71 | 0.0 | 0.9 | 0.00 | 0.27 | 0.00 | 95 | 1022.3 |
| 20260505225213 | 52 | 69 | 0.0 | 0.9 | 0.00 | 0.27 | 0.00 | 96 | 1022.5 |
| 20260505224503 | 51 | 90 | 0.0 | 0.9 | 0.00 | 0.27 | 0.00 | 96 | 1022.6 |
| 20260505224213 | 51 | 133 | 0.0 | 0.9 | 0.00 | 0.27 | 0.00 | 96 | 1022.5 |
| 20260505223503 | 51 | 132 | 0.0 | 0.9 | 0.00 | 0.27 | 0.00 | 96 | 1022.8 |
| 20260505223003 | 51 | 0 | 0.0 | 0.0 | 0.00 | 0.27 | 0.00 | 95 | 1022.8 |
| 20260505222503 | 51 | 282 | 0.0 | 0.9 | 0.00 | 0.27 | 0.00 | 95 | 1022.6 |
| 20260505222003 | 51 | 282 | 0.0 | 0.9 | 0.00 | 0.27 | 0.00 | 95 | 1022.5 |
| 20260505221503 | 52 | 0 | 0.0 | 0.0 | 0.00 | 0.27 | 0.00 | 95 | 1022.8 |
| 20260505221003 | 52 | 74 | 0.0 | 0.9 | 0.00 | 0.27 | 0.00 | 95 | 1022.8 |
| 20260505220503 | 52 | 74 | 0.0 | 0.9 | 0.00 | 0.27 | 0.00 | 95 | 1022.8 |
| 20260505220003 | 52 | 0 | 0.0 | 0.0 | 0.00 | 0.27 | 0.00 | 95 | 1022.6 |
| 20260505215503 | 52 | 0 | 0.0 | 0.0 | 0.00 | 0.27 | 0.27 | 95 | 1022.8 |
| 20260505215003 | 52 | 0 | 0.0 | 0.0 | 0.00 | 0.27 | 0.27 | 95 | 1022.6 |
| 20260505214503 | 52 | 0 | 0.0 | 0.0 | 0.00 | 0.27 | 0.27 | 95 | 1022.8 |
| 20260505214003 | 52 | 0 | 0.0 | 0.0 | 0.00 | 0.27 | 0.27 | 95 | 1022.7 |
| 20260505213503 | 52 | 0 | 0.0 | 0.0 | 0.00 | 0.27 | 0.27 | 95 | 1022.7 |
| 20260505213003 | 52 | 68 | 0.0 | 0.9 | 0.00 | 0.27 | 0.27 | 95 | 1022.9 |
| 20260505212503 | 52 | 68 | 0.0 | 0.9 | 0.00 | 0.27 | 0.27 | 95 | 1023.0 |
| 20260505212214 | 52 | 57 | 0.0 | 0.9 | 0.00 | 0.27 | 0.27 | 95 | 1023.3 |
| 20260505211503 | 52 | 299 | 0.0 | 0.9 | 0.00 | 0.27 | 0.27 | 95 | 1023.0 |
| 20260505211003 | 52 | 348 | 0.0 | 0.9 | 0.00 | 0.27 | 0.27 | 94 | 1023.2 |
| 20260505210503 | 52 | 70 | 0.0 | 0.9 | 0.00 | 0.27 | 0.27 | 95 | 1023.2 |
| 20260505210003 | 52 | 70 | 0.0 | 0.9 | 0.00 | 0.27 | 0.27 | 94 | 1023.3 |
| 20260505205504 | 52 | 71 | 0.0 | 0.9 | 0.00 | 0.27 | 0.27 | 94 | 1023.4 |
| 20260505205003 | 52 | 0 | 0.0 | 0.0 | 0.00 | 0.27 | 0.27 | 94 | 1023.2 |
| 20260505204503 | 52 | 0 | 0.0 | 0.0 | 0.00 | 0.27 | 0.27 | 93 | 1023.2 |
| 20260505204013 | 52 | 0 | 0.0 | 0.0 | 0.00 | 0.28 | 0.27 | 93 | 1023.2 |
| 20260505203503 | 52 | 0 | 0.0 | 0.0 | 0.00 | 0.28 | 0.27 | 93 | 1023.2 |
| 20260505203003 | 52 | 0 | 0.0 | 0.0 | 0.00 | 0.28 | 0.27 | 93 | 1023.0 |
| 20260505202503 | 52 | 0 | 0.0 | 0.0 | 0.00 | 0.28 | 0.27 | 93 | 1023.1 |
| 20260505202214 | 52 | 0 | 0.0 | 0.0 | 0.00 | 0.28 | 0.27 | 93 | 1023.2 |
| 20260505201503 | 52 | 77 | 0.0 | 0.9 | 0.00 | 0.28 | 0.27 | 93 | 1023.3 |
| 20260505201004 | 52 | 77 | 0.0 | 0.9 | 0.00 | 0.28 | 0.27 | 94 | 1023.3 |
| 20260505200505 | 52 | 73 | 0.0 | 0.9 | 0.00 | 0.28 | 0.27 | 94 | 1023.3 |
| 20260505200003 | 52 | 73 | 0.9 | 1.7 | 0.00 | 0.28 | 0.27 | 94 | 1023.2 |
| 20260505195712 | 52 | 73 | 0.9 | 1.7 | 0.00 | 0.28 | 0.27 | 94 | 1023.1 |
| 20260505195213 | 52 | 71 | 0.0 | 0.9 | 0.00 | 0.29 | 0.27 | 94 | 1022.9 |
| 20260505194503 | 52 | 79 | 0.0 | 1.7 | 0.00 | 0.29 | 0.27 | 93 | 1022.8 |
| 20260505194003 | 52 | 76 | 0.0 | 1.7 | 0.00 | 0.29 | 0.27 | 92 | 1023.0 |
| 20260505193504 | 52 | 64 | 0.0 | 0.9 | 0.00 | 0.30 | 0.27 | 93 | 1023.0 |
| 20260505193003 | 52 | 72 | 0.0 | 1.7 | 0.00 | 0.30 | 0.27 | 93 | 1022.9 |
| 20260505192504 | 52 | 75 | 0.0 | 1.7 | 0.00 | 0.30 | 0.27 | 93 | 1022.9 |
| 20260505192004 | 53 | 68 | 0.0 | 1.7 | 0.00 | 0.31 | 0.27 | 94 | 1022.7 |
| 20260505191503 | 53 | 68 | 0.0 | 1.7 | 0.00 | 0.31 | 0.27 | 93 | 1022.9 |
| 20260505191003 | 53 | 0 | 0.0 | 0.0 | 0.00 | 0.31 | 0.27 | 93 | 1022.8 |
| 20260505190712 | 53 | 0 | 0.0 | 0.0 | 0.00 | 0.31 | 0.27 | 93 | 1022.6 |
| 20260505190003 | 53 | 0 | 0.0 | 0.0 | 0.00 | 0.31 | 0.27 | 93 | 1022.4 |
| 20260505185714 | 54 | 0 | 0.0 | 0.0 | 0.00 | 0.32 | 0.27 | 93 | 1022.5 |